Regional Weather Roundup
Issued by NWS

Home | Current Version | Previous Version | Text Only | Print | Product List | Glossary Off
Versions: 1 2 3 4 5 6 7 8 9 10 11 12 13 14 15 16 17 18 19 20 21 22 23 24 25 26 27 28 29 30 31 32 33 34 35 36 37 38 39 40 41 42 43 44 45 46 47 48 49 50

000
ASUS43 KBIS 300710
RWRND

NORTH DAKOTA REGIONAL WEATHER ROUNDUP
NATIONAL WEATHER SERVICE BISMARCK ND
200 AM CDT MON MAY 30 2016

NOTE: "FAIR" INDICATES FEW OR NO CLOUDS BELOW 12,000 FEET WITH NO
SIGNIFICANT WEATHER AND/OR OBSTRUCTIONS TO VISIBILITY.


NDZ001>003-009>011-017-300800-
NORTHWEST NORTH DAKOTA

CITY           SKY/WX    TMP DP  RH WIND       PRES   REMARKS
WILLISTON      CLEAR     47  41  80 N3        29.92S
MINOT          CLEAR     56  45  66 S5        29.91F
MINOT AFB      CLEAR     53  44  70 SW6       29.90S
$$

NDZ018>021-031>035-040>046-300800-
SOUTHWEST NORTH DAKOTA

CITY           SKY/WX    TMP DP  RH WIND       PRES   REMARKS
BISMARCK       CLEAR     56  51  84 SE5       29.95F
DICKINSON      CLEAR     51  46  83 S10       29.93F
GARRISON         N/A     54  46  74 NE5       29.92F
HETTINGER ARPT CLEAR     51  46  83 CALM      29.97F
$$

NDZ004>008-012>016-024-026-027-054-300800-
NORTHEAST NORTH DAKOTA

CITY           SKY/WX    TMP DP  RH WIND       PRES   REMARKS
GRAND FORKS    CLEAR     50  45  83 S9        29.92R
GRND FRKS AFB  CLEAR     53  48  83 W5        29.92S
DEVILS LAKE    CLEAR     56  49  77 CALM      29.94S
$$

NDZ022-023-025-028>030-036>039-047>053-300800-
SOUTHEAST NORTH DAKOTA

CITY           SKY/WX    TMP DP  RH WIND       PRES   REMARKS
FARGO          MOCLDY    61  49  64 S6        29.94S
JAMESTOWN      CLEAR     55  47  74 CALM      29.95F
$$





USA.gov is the U.S. government's official web portal to all federal, state and local government web resources and services.